www.pogodaiklimat.ru
ПОГОДА в Нью Филадельфии
Время
и дата
04:53 30.11
05:06 30.11
05:11 30.11
05:15 30.11
05:22 30.11
05:24 30.11
05:33 30.11
05:53 30.11
06:53 30.11
07:48 30.11
07:53 30.11
08:20 30.11
08:39 30.11
08:48 30.11
08:50 30.11
08:53 30.11
09:32 30.11
09:53 30.11
11:53 30.11
12:05 30.11
12:53 30.11
13:53 30.11
14:53 30.11
15:53 30.11
16:53 30.11
17:53 30.11
18:53 30.12
19:53 30.11
20:53 30.11
21:53 30.11
22:53 30.11
23:53 30.11
00:53 01.12
01:53 01.12
02:53 01.12
03:53 01.12
04:53 01.12
05:43 01.12
05:53 01.12
06:53 01.12
07:53 01.12
08:09 01.12
08:34 01.12
08:53 01.12
09:53 01.12
10:53 01.12
11:17 01.12
11:53 01.12
Ветер
(напр.,м/с)
Видим. Явления Облачность Т
(С)
Тd
(С)
f
(%)
Тe
(С)
Тes
(С)
Комфортность P
(гПа)
Po
(гПа)
Тmin
(С)
Tmax
(С)
R
(мм)
R24
(мм)
S
(см)
Ю 5
{8}
13 км слабый дождь 10/10 420 m
[Ns]
+11.7 +10.6 93 +9 +9 1003.7 971.6
Ю 5
{8}
8 км слабый дождь, дымка 10/10 270 m
[Ns]
+11.7 +10.6 93 +9 +9 971.3
Ю 4
{8}
4 км слабый дождь, дымка 10/10 330 m
[Ns]
+12.2 +10.6 90 +10 +10 971.3
Ю 4
{8}
5 км дождь, дымка 10/10 330 m
[Ns]
+11.7 +10.6 93 +9 +9 971.3
Ю 4 6 км слабый дождь, дымка 10/10 360 m
[Ns]
+12.2 +10.6 90 +10 +10 971.0
Ю 4 6 км слабый дождь, дымка 10/10 270 m
[Ns]
+12.2 +11.1 93 +10 +10 971.0
Ю 5
{8}
10 км слабый дождь, дымка 10/10 360 m
[Ns]
+12.2 +11.1 93 +10 +10 971.0
Ю 5 6 км слабый дождь, дымка 10/10 390 m
[Ns]
+12.8 +11.1 89 +11 +11 1002.8 970.7
Ю 5
{9}
10 км слабый дождь, дымка 10/10 390 m
[Ns]
+13.3 +11.7 90 +11 +11 1002.3 970.3 +10.0 +13.3 15.5 15.5
Ю 3 16 км слабый дождь 10/5 360 m
[Ac Ns]
+13.0 +12.0 94 +12 +12 969.7
ЮЗ 3 16 км 10/2 360 m
[Ac]
+13.3 +11.7 90 +12 +12 1001.5 969.7
Ю 4 11 км слабый дождь 10/8 600 m
[Ac Ns]
+13.3 +11.1 87 +12 +12 969.7
З 11
{17}
2 км дождь, дымка 10/8 480 m
[Ac Ns]
+12.2 +10.0 86 +8 +8 972.0
З 8
{15}
4 км слабый дождь 10/8 480 m
[Ac Ns]
+9.0 +6.0 81 +5 +5 972.0
З 8
{14}
13 км слабый дождь 10/8 480 m
[Ac Ns]
+9.0 +6.0 81 +5 +5 972.3
З 5
{14}
16 км слабый дождь 10/10 480 m
[Ns]
+8.9 +6.1 83 +5 +5 1004.5 972.3
З 5
{14}
16 км слабый дождь 10/10 390 m
[Ns]
+6.1 +3.9 86 +2 +2 974.6
З 7
{11}
16 км 10/10 390 м +5.0 +2.2 82 -1 -1 1007.8 975.3 3.6
З 8
{14}
16 км 8/8 660 м +2.8 -2.2 70 -4 -3 1011.6 978.9
З 7
{12}
16 км 8/8 690 м +3.3 -2.2 67 -2 -2 979.2
З 7
{11}
16 км 5/5 1020 м +3.9 -3.9 57 -1 -1 1012.7 980.2 +2.8 +13.3 3.6
З 6
{13}
16 км ясно +3.3 -5.0 54 -2 0 1014.5 981.8
З 6
{13}
16 км 2/2 1320 м +3.3 -6.1 50 -2 -1 1015.9 983.1
З 7
{13}
16 км 2/2 1410 м +2.2 -7.2 50 -4 -3 1017.5 984.4
З 3 16 км ясно +1.7 -7.2 52 -2 -1 1018.4 985.4
ЮЗ 3 16 км ясно +1.1 -6.7 56 -3 -3 1018.7 985.7
З 5
{9}
16 км ясно +0.6 -6.7 58 -5 -5 1019.5 986.7 +0.6 +4.4
З 4
{10}
16 км 10/10 1170 м +0.6 -6.7 58 -4 -4 1020.0 987.1
З 8
{13}
16 км 10/10 1140 м 0.0 -7.8 56 -7 -7 1021.3 988.0
З 7
{10}
16 км 10/10 1140 м -0.6 -7.8 58 -7 -7 1022.1 988.7
З 6
{10}
16 км 10/10 1050 м -0.6 -8.3 56 -7 -7 1022.6 989.0
З 5
{11}
16 км 10/10 1020 м -1.1 -8.3 58 -7 -7 1023.7 990.0
З 5
{10}
16 км 10/10 1050 м -1.7 -8.9 58 -8 -8 1024.8 991.3 -1.7 +0.6
З 7
{10}
16 км 10/10 1050 м -1.7 -8.9 58 -9 -9 1025.9 992.3
З 4
{9}
16 км 10/10 1050 м -2.2 -9.4 58 -8 -8 1026.7 993.0
З 4 16 км 10/10 990 м -2.2 -8.9 60 -8 -8 1027.6 993.9
З 4 16 км 10/10 900 м -2.8 -8.9 63 -8 -8 1029.2 995.3
З 5 16 км 10/10 870 м -3.3 -9.4 63 -10 -10 996.2
З 4 16 км 10/10 870 м -3.3 -9.4 63 -9 -9 1030.3 996.2
нст 3 16 км 8/8 840 м -3.9 -9.4 66 -9 -9 1031.3 997.2 -3.9 -1.7 3.6
нст 2 16 км 8/8 780 м -4.4 -9.4 68 -8 -8 1032.2 998.2
штиль 0 16 км 2/2 780 м -4.4 -8.9 71 -5 -5 998.5
З 4 16 км 8/8 750 м -3.9 -8.9 68 -10 -10 999.2
З 3 16 км 10/10 750 м -3.9 -8.9 68 -9 -9 1033.7 999.5
нст 3 16 км 10/10 720 м -3.3 -8.9 65 -8 -8 1034.6 1000.5
нст 2 16 км 8/8 720 м -3.3 -8.9 65 -7 -7 1035.0 1000.8
З 3 16 км 2/2 780 м -2.2 -8.3 63 -7 -4 1000.8
З 4 16 км 5/5 810 м -1.1 -8.3 58 -6 -5 1034.7 1000.5
Местоположение метеостанции Harry Clever Field: широта 40.4719 долгота -81.4236 высота над уровнем моря 272 м.
В архиве по умолчанию представлена погода в Нью Филадельфии за последние 1-2 суток. Обновление информации о фактической погоде в базе происходит ежечасно! Архивные данные за месяц целиком и за предыдущие месяцы Вы можете получить, выбрав интересующий диапазон дат из раскрывающегося списка и нажав кнопку "Ввод!".
Внимание! Архив погоды МЕТАР в базе сайта по станциям, не включенным в климатический монитор, хранится не более 60 дней. Нет смысла пытаться выбрать более раннюю дату.
*Определитесь, кто Вы:
Внимание! Время в таблицах - местное (без учета летнего времени). Для получения всемирного времени необходимо вычесть поправку, которая равна -5 ч.
Смотрите также архив погоды в соседних городах и на ближайших метеорологических станциях:
Партнеры нашего сайта:      
Пояснения к столбцам:
  • Ветер - указаны скорость ветра в м/с - средняя за 10 мин, порывы в срок и между сроками (в фигурных скобках) и направление, откуда дует ветер: С - северный,
  • СВ - северо-восточный, В - восточный, ЮВ - юго-восточный, Ю - южный, ЮЗ - юго-западный, З - западный, СЗ - северо-западный.
  • Видимость - горизонтальная дальность видимости в метрах или километрах. При видимости от 1 до 10 км при отсутствии осадков обычно наблюдается дымка, при ухудшении видимости до 1 км и менее - туман. В сухую погоду видимость может ухудшаться дымом, пылью или мглою.
  • Явления - указаны атмосферные явления, наблюдавшиеся в срок или в последний час перед сроком; фигурными скобками обозначены явления, наблюдавшиеся между сроками (за 1-3 часа до срока); квадратными скобками обозначены град или гололедные отложения с указанием их диаметра в мм.
  • Облачность - указаны через наклонную черту общая и нижняя облачность в баллах и высота нижней границы облаков в метрах; квадратными скобками обозначены формы облаков: Ci - перистые, Cs - перисто-слоистые, Cc - перисто-кучевые, Ac - высококучевые, As - высокослоистые, Sc - слоисто-кучевые, Ns - слоисто-дождевые, Cu - кучевые, Cb - кучево-дождевые. Подробнее классификацию облаков см. в Атласе облаков (PDF).
  • T - Температура воздуха - температура, измеренная на высоте 2 м над землей.
  • Td - Температура точки росы - температура, при понижении до которой содержащийся в воздухе водяной пар достигнет насыщения.
  • f - Относительная влажность воздуха - влажноcть воздуха, измеренная на высоте 2 м над землей.
  • Te - Эффективная температура - температура, которую ощущает одетый по сезону человек в тени. Характеристика душности погоды. При расчете учитывается влияние влажности воздуха и скорости ветра на теплоощущения человека.
  • Tes - Эффективная температура на солнце - температура, которую ощущает человек, с поправкой на солнечный нагрев. Характеристика знойности погоды. Зависит от высоты солнца над горизонтом, облачности и скорости ветра. Ночью, в пасмурную погоду, а также при ветре 12 м/с и более поправка равна нулю.
  • P - Атмосферное давление - приведенное к уровню моря атмосферное давление.
  • Po - Атмосферное давление - измеренное на уровне метеостанции атмосферное давление.
  • Tmin - Минимальная температура - минимум температуры воздуха на высоте 2 м над землей.
  • Tmax - Максимальная температура - максимум температуры воздуха на высоте 2 м над землей.
  • R - Количество осадков - Количество выпавших осадков за период времени, мм. При наведении курсора мыши на число - период времени, за который выпало указанное количество осадков.
  • R24 - Количество осадков - Количество выпавших осадков за 24 часа, мм.
  • S - Снежный покров - Высота снежного покрова, см. При наведении курсора мыши на число - состояние снежного покрова и степень покрытия местности в баллах.